Location: Mt. Chestnut Observatory
(40.9038°N, 79.9956°W)
Time: 12:25:43
(UTC-04:00)

Daily predictions for brighter satellites

Satellite Brightness Start Highest point End
(mag) Time Altitude Azimuth Time Altitude Azimuth Time Altitude Azimuth
Meteor 1-15 Rocket 4.3 19:39:21 10° S 19:45:11 67° E 19:51:00 10° NNE
Cosmos 1898 Rocket 3.8 19:40:46 10° N 19:45:46 46° ENE 19:50:44 10° SE
Cosmos 482 Debris 4.5 19:49:06 10° NW 19:53:28 45° NNE 19:56:04 11° ESE
Tiangong 2 2.9 19:51:29 10° W 19:54:16 28° SSW 19:57:03 10° SSE
COSMO-SKYMED 1 3.7 19:51:03 10° N 19:55:16 50° WNW 19:59:27 10° SSW
Cosmos 1707 3.4 19:53:10 10° N 19:56:45 33° ENE 20:00:20 10° SE
Cosmos 1709 Rocket 4.0 19:54:24 10° S 20:00:42 75° E 20:07:06 10° N
Cosmos 2150 Rocket 4.5 19:56:00 10° N 20:01:02 42° ENE 20:06:07 10° SE
Cosmos 990 Rocket 4.4 19:57:01 10° N 20:01:54 41° ENE 20:06:44 10° SE
Cosmos 2369 Rocket 2.4 19:56:17 10° NNW 20:01:57 77° WSW 20:07:33 10° SSE
Cosmos 1340 Rocket 2.9 20:00:08 10° N 20:04:07 55° ENE 20:08:07 10° SSE
FENGYUN 3A 3.7 19:59:32 10° SSE 20:04:53 85° WSW 20:10:18 10° NNW
Cosmos 1758 Rocket 3.7 20:00:40 10° N 20:05:07 58° E 20:09:32 10° SSE
ALOS 2.6 20:04:38 10° S 20:09:17 70° WSW 20:13:58 10° NNW
Cosmos 389 Rocket 2.3 20:05:53 10° S 20:09:25 77° E 20:12:55 10° NNE
Envisat 4.1 20:05:29 10° ESE 20:09:27 24° ENE 20:13:28 10° NNE
Cosmos 1656 Rocket 4.4 20:04:38 10° N 20:09:44 33° ENE 20:14:09 13° ESE
BREEZE M DEB (TANK) 3.9 20:01:34 10° WNW 20:10:21 52° NNE 20:12:59 15° E
Lacrosse 5 2.6 20:05:38 10° NW 20:10:33 52° SW 20:15:28 10° SSE
Cosmos 1726 Rocket 3.5 20:08:31 10° S 20:12:52 67° E 20:17:12 10° NNE
Cosmos 1271 Rocket 3.0 20:11:51 10° SSW 20:15:35 71° W 20:19:23 10° N
FREGAT/IRIS 2.8 20:15:04 10° S 20:18:05 74° W 20:21:07 10° NNW
Cosmos 2263 4.4 20:14:39 10° NNW 20:20:17 76° WSW 20:25:54 10° SSE
Resurs 01 Rocket 2.3 20:16:42 11° SE 20:20:25 34° ENE 20:24:25 10° N
BREEZE-M DEB (TANK) 4.3 20:17:47 10° WNW 20:21:14 37° N 20:31:29 10° ENE
Cosmos 858 Rocket 4.5 20:17:46 10° NNW 20:23:04 85° ENE 20:28:17 10° SSE
Cosmos 1943 4.2 20:18:31 10° SW 20:24:00 50° WNW 20:29:33 10° NNE
Cosmos 2184 Rocket 4.2 20:18:35 10° SSE 20:24:31 46° E 20:30:32 10° NNE
USA 186 3.2 20:25:29 16° NE 20:25:29 16° NE 20:26:32 10° NNE
Cosmos 2298 Rocket 4.0 20:19:28 10° NNW 20:24:50 76° ENE 20:30:09 10° SSE
CZ-2D R/B 3.4 20:26:31 12° SSE 20:29:50 49° ENE 20:33:32 10° N
FALCON 9 R/B 2.4 20:27:09 10° SW 20:30:02 36° SSE 20:33:19 20° ESE
GP-B 4.1 20:26:55 10° NNE 20:30:38 26° E 20:31:49 23° ESE
Cosmos 468 Rocket 4.5 20:26:42 10° SSW 20:31:51 64° WNW 20:37:05 10° NNE
ORS 1 (USA 231) 4.4 20:29:56 10° WSW 20:32:52 68° S 20:33:49 38° ESE
SJ-6B 3.0 20:29:07 10° S 20:33:10 77° WSW 20:37:10 10° NNW
Cosmos 1937 Rocket 3.5 20:28:11 10° NNW 20:33:32 89° E 20:38:48 10° SSE
Cosmos 841 Rocket 3.5 20:28:47 10° S 20:33:47 56° ESE 20:38:49 10° NNE
Cosmos 1378 3.1 20:31:33 10° N 20:35:21 88° W 20:39:06 10° S
Meteor 1-24 Rocket 3.9 20:32:47 10° N 20:38:41 55° ENE 20:44:00 12° SSE
Cosmos 371 Rocket 4.4 20:34:38 10° SW 20:39:20 48° WNW 20:44:05 10° N
USA 229 DEB 4.0 20:32:12 10° NW 20:39:24 77° WSW 20:46:43 10° SSE
USA 229 4.0 20:32:19 10° NW 20:39:30 78° WSW 20:46:49 10° SSE
YAOGAN 6 4.5 20:44:48 16° NE 20:44:48 16° NE 20:46:14 10° NNE
NOSS 3-1 (A) 4.3 20:36:31 10° NNW 20:43:53 52° NE 20:48:54 24° ESE
HJ-1C 4.3 20:43:09 10° S 20:46:24 49° W 20:49:41 10° NNW
BREEZE-M DEB (TANK) 3.6 20:46:32 10° NNW 20:47:43 13° N 20:47:45 13° N
Cosmos 2058 Rocket 3.3 20:43:32 10° SSW 20:47:52 69° W 20:52:14 10° N
Cosmos 1812 Rocket 4.1 20:48:56 34° E 20:49:08 34° E 20:53:11 10° NNE
Cosmos 1544 3.3 20:49:31 43° E 20:49:31 43° E 20:52:51 10° NNE
Cosmos 2327 Rocket 4.4 20:43:44 10° S 20:49:48 67° E 20:55:52 10° NNE
Cosmos 2084 3.1 20:47:23 10° SSW 20:51:29 78° SE 20:54:36 16° NE
Cosmos 2228 3.4 20:48:23 10° SSW 20:52:43 66° W 20:57:04 10° N
NOSS 3-1 (C) 4.0 20:47:17 10° NNW 20:54:55 75° NE 21:00:23 24° SE
Cosmos 1763 Rocket 3.8 20:51:43 10° SSW 20:56:46 68° WNW 21:01:55 10° NNE
Meteor 2-8 Rocket 4.4 20:53:10 10° N 20:59:16 63° E 21:03:15 22° SSE
MOS 1-B Rocket 3.9 20:55:10 14° SSE 21:00:52 73° ENE 21:06:37 10° N
ATLAS CENTAUR R/B 3.3 20:49:43 10° NW 21:03:13 83° SW 21:05:46 33° SE
Meteor 2-5 Rocket 4.4 20:58:17 10° NNW 21:04:03 58° W 21:09:41 10° S
Cosmos 540 Rocket 3.4 21:01:07 10° S 21:06:04 54° ESE 21:11:03 10° NNE
GEOS 3 Rocket 3.6 21:01:14 10° NE 21:06:38 67° SE 21:11:57 10° SSW
Cosmos 1943 Rocket 3.7 21:05:41 10° NW 21:10:39 34° WSW 21:15:38 10° SSW
Meteor 2-19 Rocket 4.3 21:05:13 10° S 21:11:11 65° E 21:17:10 10° NNE
Meteor 1-22 Rocket 4.3 21:07:59 10° SSW 21:13:47 79° W 21:19:23 10° N
Spot 2 Rocket 3.6 21:12:52 23° S 21:16:05 75° WSW 21:21:10 10° NNW
Cosmos 836 Rocket 4.3 21:13:10 10° SSW 21:18:26 76° ESE 21:23:43 10° NNE
Cosmos 1939 Rocket 3.0 21:19:28 61° NNE 21:19:28 61° NNE 21:22:49 10° N
BREEZE-M DEB (TANK) 3.1 21:09:13 10° WSW 21:20:05 81° SSE 21:21:11 53° ENE
Cosmos 1766 3.9 21:17:34 10° SSW 21:21:26 55° W 21:25:19 10° N
Meteor 1-21 Rocket 4.5 21:19:40 10° N 21:25:08 48° ENE 21:25:08 48° ENE
Cosmos 2154 Rocket 3.8 21:22:48 10° S 21:29:00 82° E 21:35:17 10° N
COSMOS 2406 3.2 21:24:43 10° SSW 21:30:25 85° WNW 21:36:11 10° NNE
Cosmos 2341 Rocket 3.9 21:34:12 60° SE 21:34:54 64° E 21:41:03 10° NNE
Cosmos 1125 Rocket 3.4 21:33:12 10° NNW 21:38:33 90° ESE 21:38:48 81° SSE
H-2A R/B 3.9 21:42:16 17° NNE 21:42:16 17° NNE 21:43:48 10° NNE
NOAA 11 4.4 21:42:52 54° NE 21:42:52 54° NE 21:47:30 10° N
Helios 1A 4.4 21:47:42 32° N 21:47:42 32° N 21:49:59 10° N
Envisat 4.1 21:45:42 24° SSW 21:48:13 40° W 21:53:00 10° NNW
ERS-1 Rocket 4.0 21:51:22 36° NNE 21:51:22 36° NNE 21:54:31 10° N
ARGOS 4.2 21:57:13 35° NNE 21:57:13 35° NNE 22:00:35 10° N
Resurs 01 Rocket 3.9 21:54:17 13° SW 21:56:57 21° W 22:00:21 10° NW
Cosmos 372 Rocket 4.4 21:56:38 10° NNW 22:01:24 61° WNW 22:01:24 61° WNW
Nadezhda 3 Rocket 4.4 21:57:27 10° NNW 22:03:38 58° W 22:05:25 43° SW
ATLAS 2AS CENTAUR R/B 3.4 22:18:31 10° NNW 22:25:45 48° NE 22:25:45 48° NE
USA 267 4.4 22:55:44 33° N 22:55:44 33° N 23:00:43 10° NW
Cosmos 1980 Rocket 4.3 22:54:40 10° N 22:56:29 20° N 22:56:29 20° N
